Weather History for Haleyville, AL

Change the Weather History Date:

Monday, April 21, 2014

  Actual Average (KJFX) Record (KJFX)
Temperature  
Mean Temperature 61 °F -  
Max Temperature 77 °F 77 °F 89 °F (1971)
Min Temperature 45 °F 49 °F 29 °F (1983)
Degree Days  
Heating Degree Days 4    
Growing Degree Days 11 (Base 50)    
Moisture  
Dew Point 51 °F    
Average Humidity 69    
Maximum Humidity 100    
Minimum Humidity 40    
Precipitation  
Precipitation 0.00 in - - ()
Sea Level Pressure  
Sea Level Pressure 30.13 in    
Wind  
Wind Speed 3 mph (SW)    
Max Wind Speed 12 mph    
Max Gust Speed -    
Visibility 9 miles    
Events      
Averages and records for this station are not official NWS values.
T = Trace of Precipitation, MM = Missing Value Source: NWS Daily Summary

Daily Weather History Graph

Daily Weather History Graph

Search for Another Location

Airport:

Trip Planner

Search our weather history database for the weather conditions in past years. The results will help you decide how hot, cold, wet, or windy it might be!

Date:

Astronomy

Apr. 21, 2014 Rise Set
Actual Time 6:11 AM CDT 7:26 PM CDT
Civil Twilight 5:45 AM CDT 7:53 PM CDT
Nautical Twilight 5:14 AM CDT 8:24 PM CDT
Astronomical Twilight 4:42 AM CDT 8:56 PM CDT
Moon 12:52 AM CDT (4/21) 11:41 AM CDT (4/21)
Length of Visible Light 14h 07m
Length of Day
13h 14m
Waning Gibbous, 57% of the Moon is Illuminated
Apr 21
Waning Gibbous
Apr 22
Last Quarter
Apr 29
New
May 6
First Quarter
May 14
Full

Hourly Weather History & Observations

Time (CDT) Temp. Dew Point Humidity Pressure Visibility Wind Dir Wind Speed Gust Speed Precip Events Conditions
12:56 AM 50.9 °F 47.8 °F 89% 30.19 in 10.0 mi Calm Calm - N/A   Clear
1:26 AM 48.2 °F 48.2 °F 100% 30.16 in 1.8 mi Calm Calm - N/A   Clear
1:34 AM 48.2 °F 46.4 °F 93% 30.16 in 4.0 mi Calm Calm - N/A   Clear
1:56 AM 48.9 °F 47.8 °F 96% 30.18 in 10.0 mi Calm Calm - N/A   Clear
2:56 AM 47.8 °F 46.9 °F 97% 30.17 in 10.0 mi Calm Calm - N/A   Clear
3:56 AM 46.9 °F 46.9 °F 100% 30.17 in 9.0 mi Calm Calm - N/A   Clear
4:56 AM 46.9 °F 46.9 °F 100% 30.18 in 8.0 mi Calm Calm - N/A   Clear
5:56 AM 45.9 °F 45.9 °F 100% 30.18 in 6.0 mi Calm Calm - N/A   Clear
6:56 AM 46.9 °F 46.9 °F 100% 30.20 in 7.0 mi Calm Calm - N/A   Clear
7:56 AM 56.8 °F 52.0 °F 84% 30.19 in 10.0 mi East 3.5 mph - N/A   Clear
8:56 AM 63.9 °F 52.0 °F 65% 30.19 in 10.0 mi SE 4.6 mph - N/A   Clear
9:56 AM 68.9 °F 52.0 °F 55% 30.19 in 10.0 mi Variable 5.8 mph - N/A   Clear
10:56 AM 72.9 °F 52.0 °F 48% 30.18 in 10.0 mi Variable 6.9 mph - N/A   Clear
11:56 AM 74.8 °F 50.0 °F 42% 30.16 in 10.0 mi WSW 8.1 mph - N/A   Clear
12:56 PM 75.9 °F 50.9 °F 41% 30.14 in 10.0 mi SW 9.2 mph - N/A   Scattered Clouds
1:56 PM 77.0 °F 50.9 °F 40% 30.12 in 10.0 mi Variable 6.9 mph - N/A   Partly Cloudy
2:56 PM 77.9 °F 52.0 °F 40% 30.11 in 10.0 mi WSW 10.4 mph - N/A   Scattered Clouds
3:56 PM 77.9 °F 52.0 °F 40% 30.09 in 10.0 mi SSW 11.5 mph - N/A   Partly Cloudy
4:56 PM 77.0 °F 50.9 °F 40% 30.06 in 10.0 mi SSW 9.2 mph - N/A   Clear
5:56 PM 74.8 °F 50.9 °F 43% 30.04 in 10.0 mi WSW 9.2 mph - N/A   Clear
6:56 PM 72.9 °F 52.9 °F 49% 30.04 in 10.0 mi SW 4.6 mph - N/A   Overcast
7:56 PM 70.9 °F 54.9 °F 57% 30.04 in 10.0 mi SW 3.5 mph - N/A   Mostly Cloudy
8:56 PM 65.8 °F 55.9 °F 70% 30.04 in 10.0 mi Calm Calm - N/A   Partly Cloudy
9:56 PM 63.9 °F 54.9 °F 72% 30.04 in 10.0 mi SSW 3.5 mph - N/A   Clear
10:56 PM 64.9 °F 55.9 °F 73% 30.03 in 10.0 mi SSW 4.6 mph - N/A   Mostly Cloudy
11:56 PM 66.9 °F 55.9 °F 68% 30.02 in 10.0 mi SW 5.8 mph - N/A   Scattered Clouds